Regional Weather Roundup
Issued by NWS Boston, MA

Home | Current Version | Previous Version | Text Only | Print | Product List | Glossary On
Versions: 1 2 3 4 5 6 7 8 9 10 11 12 13 14 15 16 17 18 19 20 21 22 23 24 25 26 27 28 29 30 31 32 33 34 35 36 37 38 39 40 41 42 43 44 45 46 47 48 49 50
000
ASUS41 KBOX 271210
RWRBOX

REGIONAL WEATHER ROUNDUP
NATIONAL WEATHER SERVICE TAUNTON MA
800 AM EDT WED JUL 27 2016

NOTE:  "FAIR" INDICATES FEW OR NO CLOUDS BELOW 12,000 FEET WITH NO
SIGNIFICANT WEATHER AND/OR OBSTRUCTIONS TO VISIBILITY.  THE FOLLOWING
OBSERVATION LOCATIONS DO NOT REPORT PRESENT WEATHER...PROVINCETOWN...
SMITHFIELD...BLOCK ISLAND...KEENE...AND OXFORD.

MAZALL-271300-
EASTERN MASSACHUSETTS

CITY           SKY/WX    TMP DP  RH WIND       PRES   REMARKS
BOSTON         MOSUNNY   79  61  53 NW6       29.93R
6HR MIN TEMP:  74; 6HR MAX TEMP:  79;

BEVERLY        SUNNY     76  63  64 NW3       29.92S
LAWRENCE       SUNNY     75  61  61 NW5       29.95R
BEDFORD        SUNNY     75  59  57 W5        29.92S
BLUE HILL        N/A     74  59  59 NW5       29.94S
NORWOOD        SUNNY     76  63  64 CALM      29.93S
MARSHFIELD     SUNNY     79  63  57 VRB6      29.92S
PLYMOUTH       SUNNY     77  61  57 NW6       29.93S
TAUNTON        SUNNY     75  63  66 NW3       29.93R
NEW BEDFORD    SUNNY     78  63  59 N5        29.93R
$$

MAZALL-271300-
CAPE COD AND THE ISLANDS

CITY           SKY/WX    TMP DP  RH WIND       PRES   REMARKS
FALMOUTH       SUNNY     75  63  64 N9        29.91S
HYANNIS        SUNNY     76  62  62 N8        29.91R
CHATHAM        SUNNY     78  66  66 CALM      29.92S
PROVINCETOWN   SUNNY     74  65  73 NW6       29.92S
NANTUCKET      MOSUNNY   77  64  64 N12       29.91S
MARTHAS VNYRD  SUNNY     77  65  66 N8        29.92S
$$

MAZALL-271300-
CENTRAL AND WESTERN MASSACHUSETTS

CITY           SKY/WX    TMP DP  RH WIND       PRES   REMARKS
WORCESTER      SUNNY     75  58  55 N3        29.98S
6HR MIN TEMP:  66; 6HR MAX TEMP:  75;

FITCHBURG      SUNNY     79  60  52 NW3       29.95S
ORANGE         SUNNY     69  60  73 N3        29.97S
SPRINGFIELD    SUNNY     72  63  74 CALM      29.94S
WESTFIELD      SUNNY     74  61  63 CALM      29.95S
NORTH ADAMS    SUNNY     67  61  81 CALM      29.99R
PITTSFIELD     MOSUNNY   68  61  78 CALM      29.99S
$$

RIZALL-271300-
RHODE ISLAND

CITY           SKY/WX    TMP DP  RH WIND       PRES   REMARKS
PROVIDENCE     MOSUNNY   79  61  53 N7        29.94S
6HR MIN TEMP:  68; 6HR MAX TEMP:  79;

NEWPORT        SUNNY     76  64  66 NW5       29.94R
BLOCK ISLAND   MOSUNNY   75  64  68 N3        29.95R
SMITHFIELD     SUNNY     75  63  64 N3        29.95S
WESTERLY       SUNNY     78  62  57 CALM      29.94S
$$

CTZALL-271300-
CONNECTICUT

CITY           SKY/WX    TMP DP  RH WIND       PRES   REMARKS
BRADLEY INTL   MOSUNNY   77  61  57 NW3       29.94S
6HR MIN TEMP:  65; 6HR MAX TEMP:  77;

HARTFORD       SUNNY     76  66  71 CALM      29.95S
BRIDGEPORT     SUNNY     78  62  57 CALM      29.95S
DANBURY        MOSUNNY   72  62  71 CALM      29.98S
GROTON         SUNNY     78  64  61 N3        29.93S
NEW HAVEN      MOSUNNY   76  63  64 N5        29.95S
CHESTER        FAIR      77  63  61 N7        29.96S
MERIDEN        SUNNY     76  63  64 CALM      29.95F
WILLIMANTIC    NOT AVBL
OXFORD         MOSUNNY   72  59  64 CALM      29.99R
$$

MEZ002-015-021-024-NHZ003-005-008-011-012-014-VTZ005-008-271300-
NORTHERN NEW ENGLAND

CITY           SKY/WX    TMP DP  RH WIND       PRES   REMARKS
PORTLAND ME    MOSUNNY   74  63  68 NW5       29.92R
6HR MIN TEMP:  64; 6HR MAX TEMP:  74;

BANGOR ME      MOSUNNY   75  64  68 W3        29.89S
CONCORD NH     SUNNY     74  60  61 CALM      29.94R
MANCHESTER NH  MOSUNNY   73  60  63 CALM      29.92S
NASHUA NH      SUNNY     73  61  65 NW3       29.94S
PORTSMOUTH NH  SUNNY     73  63  69 NW3       29.91S
JAFFREY NH     SUNNY     69  60  73 S3        29.98S
KEENE NH       SUNNY     67  60  78 CALM      29.98S
BURLINGTON VT  FAIR      71  62  73 CALM      29.93S
MT. WASHINGTON MOSUNNY   48  36  61 N7          N/A
$$

NYZ052-076-271300-
EASTERN NEW YORK

CITY           SKY/WX    TMP DP  RH WIND       PRES   REMARKS
ALBANY         SUNNY     72  62  71 S5        29.97S
6HR MIN TEMP:  64; 6HR MAX TEMP:  72;

NEW YORK CITY  PTSUNNY   78  61  55 NE6       29.95S
6HR MIN TEMP:  77; 6HR MAX TEMP:  81;

$$

ANZALL-271300-
MARINE OBSERVATIONS

STATION/POSITION TIME  TEMP    WIND        PRES    VSBY  WAVE
                       AIR SEA DIR/SP/G                  HT/PER
                 (UTC) (F)     (DEG/KT/KT) (MB)    (MI)  (FT/S)
BOSTON BUOY      1150   72 72  300/  6/  6 1012.8S         1
BUZZARDS BAY     1200   75     310/  6/  6 1013.9R
NANTUCKET SOUND  1150   75 75  350/ 10/ 12 1012.5R         1/ 3
MASS BAY-STELLWA 1104   71 70  310/  4/  4 1012.8R  1 7/8  1
ISLE OF SHOALS   1200   69     310/  6/  6 1012.8S
S OF BLOCK IS    1125      72                N/A           3/ 7
$$

......................KEY.........................
  SKY/WX - SKY CONDITION/PRESENT WEATHER
  TMP    - TEMPERATURE IN FAHRENHEIT
  DWPT   - DEWPOINT IN FAHRENHEIT
  RH     - RELATIVE HUMIDITY IN PERCENT
  WIND   - DIRECTION AND SPEED IN MPH
  PRES   - MEAN SEA LEVEL PRESSURE IN INCHES OF HG
  WCI    - WIND CHILL INDEX
  VSB    - VISIBILITY IN MILES
  HX     - HEAT INDEX
  TC     - TEMPERATURE IN CELSIUS
  VRB    - VARIABLE WIND DIRECTION
  N/A    - NOT AVAILABLE



USA.gov is the U.S. government's official web portal to all federal, state and local government web resources and services.